Location: Unspecified
(51.6250°N, 0.8230°E)
Time: 03:53:55
(UTC+01:00)

Intercosmos 25 - Visible Passes

Search period start: 21 August 2017 00:00
Search period end: 31 August 2017 00:00
Orbit: 436 x 2884 km, 82.6° (Epoch: 20 August)

Date Brightness Start Highest point End Pass type
(mag) Time Alt. Az. Time Alt. Az. Time Alt. Az.
21 Aug 7.5 02:51:49 10° ESE 02:58:31 24° ENE 03:07:35 10° NNE visible
21 Aug 6.0 04:48:22 10° S 04:56:19 79° E 05:09:35 10° NNE visible
22 Aug 7.5 02:46:45 10° ESE 02:53:42 25° ENE 03:03:10 10° NNE visible
22 Aug 6.0 04:43:25 10° S 04:51:34 81° E 05:05:06 10° NNE visible
23 Aug 7.5 02:41:42 10° ESE 02:48:55 26° ENE 02:58:44 10° NNE visible
23 Aug 6.0 04:38:28 10° S 04:46:51 82° E 05:00:38 10° NNE visible
24 Aug 7.5 02:36:39 10° ESE 02:44:07 27° ENE 02:54:17 10° NNE visible
24 Aug 6.0 04:33:32 10° S 04:42:07 83° E 04:56:09 10° NNE visible
25 Aug 7.5 02:31:38 10° ESE 02:39:20 28° ENE 02:49:52 10° NNE visible
25 Aug 6.1 04:28:35 10° S 04:37:24 84° E 04:51:41 10° NNE visible
26 Aug 7.5 02:26:36 10° ESE 02:34:33 29° ENE 02:45:24 10° NNE visible
26 Aug 6.1 04:23:39 10° S 04:32:41 85° E 04:47:11 10° NNE visible
27 Aug 7.5 02:21:35 10° ESE 02:29:47 30° ENE 02:40:58 10° NNE visible
27 Aug 6.1 04:18:43 10° S 04:27:58 86° E 04:42:43 10° NNE visible
28 Aug 7.5 02:16:35 10° ESE 02:25:01 31° ENE 02:36:31 10° NNE visible
28 Aug 6.2 04:13:48 10° S 04:23:17 88° E 04:38:14 10° NNE visible
29 Aug 7.5 02:11:35 10° SE 02:20:16 32° ENE 02:32:04 10° NNE visible
29 Aug 6.2 04:08:53 10° S 04:18:36 89° E 04:33:45 10° NNE visible
30 Aug 7.5 02:06:35 10° SE 02:15:32 33° ENE 02:27:36 10° NNE visible
30 Aug 6.2 04:03:59 10° S 04:13:55 90° E 04:29:16 10° NNE visible
